This is the latest recevied weather packets stored in our database for station/object WA6ODQ-13. If no packets are shown the sender has not sent any weather packets the latest 10 day(s).
| Time | Temp. | Humidity | Pressure | Rain* | Wind** | Luminosity | Snow |
|---|---|---|---|---|---|---|---|
| 1777955389 | 12.22° C | 99% | 1013.2 hPa | 3.56 mm | - | 0 W/m² | - |
| 1777955085 | 12.22° C | 99% | 1013.4 hPa | 3.05 mm | - | 0 W/m² | - |
| 1777954783 | 12.22° C | 99% | 1013.5 hPa | 1.27 mm | - | 0 W/m² | - |
| 1777954479 | 12.22° C | 99% | 1013.5 hPa | 0 mm | - | 0 W/m² | - |
| 1777954177 | 12.22° C | 99% | 1013.5 hPa | 0 mm | - | 0 W/m² | - |
| 1777953874 | 11.67° C | 99% | 1013.6 hPa | 0 mm | - | 0 W/m² | - |
| 1777953571 | 11.67° C | 99% | 1013.6 hPa | 0 mm | - | 0 W/m² | - |
| 1777953267 | 12.22° C | 98% | 1013.8 hPa | 0 mm | - | 0 W/m² | - |
| 1777952964 | 11.67° C | 97% | 1013.7 hPa | 0 mm | - | 0 W/m² | - |
| 1777952660 | 12.22° C | 96% | 1013.7 hPa | 0 mm | - | 0 W/m² | - |
| 1777952357 | 12.22° C | 96% | 1013.5 hPa | 0 mm | - | 0 W/m² | - |
| 1777952054 | 12.22° C | 95% | 1013.4 hPa | 1.78 mm | - | 0 W/m² | - |
| 1777951753 | 11.67° C | 95% | 1013.5 hPa | 1.78 mm | - | 0 W/m² | - |
| 1777951449 | 11.67° C | 93% | 1013.5 hPa | 0 mm | - | 0 W/m² | - |
| 1777951146 | 12.22° C | 92% | 1013.1 hPa | 0 mm | - | 0 W/m² | - |
| 1777950843 | 12.22° C | 90% | 1013.1 hPa | 0 mm | - | 0 W/m² | - |
| 1777950540 | 12.22° C | 91% | 1012.6 hPa | 0 mm | - | 0 W/m² | - |
| 1777950235 | 12.22° C | 91% | 1012.3 hPa | 0 mm | - | 0 W/m² | - |
| 1777949931 | 12.22° C | 91% | 1012 hPa | 0 mm | - | 0 W/m² | - |
| 1777949629 | 12.22° C | 90% | 1011.9 hPa | 0 mm | - | 1 W/m² | - |
| 1777949328 | 12.22° C | 91% | 1011.9 hPa | 0 mm | - | 1 W/m² | - |
| 1777949025 | 12.22° C | 92% | 1011.9 hPa | 0 mm | - | 2 W/m² | - |
| 1777948722 | 12.22° C | 91% | 1011.9 hPa | 0 mm | - | 2 W/m² | - |
| 1777948419 | 12.78° C | 91% | 1012 hPa | 0 mm | - | 4 W/m² | - |
| 1777948116 | 12.78° C | 92% | 1011.8 hPa | 0 mm | - | 5 W/m² | - |
* Rain latest hour (hover to see other rain measurements)
** Current wind speed in m/s (hover to see current wind gust speed)